Home   Weather   Maputo   Past weeks

Flag for Mozambique Past Weather in Maputo, Mozambique — Yesterday and Last 2 Weeks

Now
61 °F

Sunny.


Feels Like: 61 °F
Forecast: 61 / 83 °F
Wind: 10 mph from North

Location: Maputo / Mavalane

Current Time: May 24, 2017 at 8:04:40 am

Latest Report: May 24, 2017 at 7:00 am


Visibility: 10 mi

Pressure: 30.01 "Hg

Humidity: 88%

Dew Point: 57 °F

Location of MaputoLocation

Past Weather in Maputo — Graph

°F

Maputo Temperature Yesterday

Maximum temperature yesterday: 90 °F (at 3:00 pm)
Minimum temperature yesterday: 59 °F (at 5:00 am)
Average temperature yesterday: 71 °F

High & Low Weather Summary for the Past Weeks

 TemperatureHumidityPressure
High90 °F (May 23, 3:00 pm)94% (May 9, 7:00 am)30.27 "Hg (May 9, 7:00 am)
Low55 °F (May 14, 4:00 am)33% (May 23, 3:00 pm)29.89 "Hg (May 12, 10:00 am)
Average71 °F76%30.11 "Hg
* Reported May 9 7:00 am — May 24 7:00 am, Maputo. Weather by CustomWeather, © 2017

Note: Actual official high and low records may vary slightly from our data, if they occured in-between our weather recording intervals... More about our weather records

Advertising

Maputo Weather History for the Previous 24 Hours

Scroll right to see more
 ConditionsComfort  
Time TempWeatherWind HumidityBarometerVisibility
7:00 am
Wed, May 24
61 °FSunny.10 mph88%30.01 "Hg10 mi
5:00 am61 °FClear.9 mph94%30.01 "Hg10 mi
3:00 am61 °FClear.7 mph94%30.04 "Hg10 mi
2:00 am63 °FClear.8 mph88%30.04 "Hg10 mi
1:00 am63 °FClear.6 mph94%30.04 "Hg10 mi
12:00 am64 °FClear.7 mph88%30.04 "Hg10 mi
10:00 pm
Tue, May 23
70 °FClear.9 mph88%30.07 "Hg10 mi
8:00 pm72 °FPassing clouds.10 mph83%30.07 "HgN/A
7:00 pm73 °FPassing clouds.10 mph78%30.04 "HgN/A
6:00 pm73 °FPassing clouds.8 mph69%30.04 "HgN/A
5:00 pm79 °FSunny.8 mph54%30.04 "Hg10 mi
4:00 pm86 °FSunny.9 mph38%30.01 "Hg10 mi
3:00 pm90 °FSunny.8 mph33%30.01 "Hg10 mi
2:00 pm88 °FSunny.9 mph35%30.04 "Hg10 mi
1:00 pm86 °FSunny.9 mph38%30.07 "Hg10 mi
11:00 am79 °FSunny.8 mph54%30.09 "Hg10 mi
10:00 am73 °FSunny.7 mph69%30.12 "Hg10 mi
9:00 am68 °FSunny.6 mph94%30.12 "Hg10 mi
8:00 am64 °FSunny.7 mph94%30.12 "Hg10 mi
Weather by CustomWeather, © 2017

See weather overviewHow to use our weather pages